"Pseudo-MPEC" for P10Rxi3

Created 2019 Sep 22 12:07:42 UT using Find_Orb

Click here for an explanation of pseudo-MPECs

 
 Astrometry: 
     P10Rxi3  C2019 09 11NwyGrn@l5\4@V8iq76JZ(j#=J:UM`]K_*w.$jw;$=qpr`B/Pli36F51
     P10Rxi3  C2019 09 11F3SJM.xgk#LP4Tj1oH)As![;02aSyxS2Q$9:V_Y,5YAD$,mL5hy6F51
     P10Rxi3  C2019 09 11J:6-5TaG+e`yu@_TLN3mr7TAstrometry@i.=Zredacted;224hBF51
     P10Rxi3  C2019 09 11kB]l','wLfQyndFAVaclickNDIEX6Wl8yh^AKPIM]*$/herepUbdF51
     P10Rxi3 ^C2019 09 12tc+*=FXaJW?`ifRhT6dZgga$qfgAuP_omES0k1roCforkU21bT@x695
     P10Rxi3 ^C2019 09 12?+;C'eCW;]Lb(rexplanationMkjCh6xG`UA9MAXY7V5A3O6pxx\695
     P10Rxi3 ^C2019 09 12pK';Hp+GJ,aYNT-Ig@`wUYh..8d`60\%d,0eVq'jE5wH=/yLBq;P695
     P10Rxi3 KC2019 09 21.44073 03 33 27.82 -12 29 11.9    ~9LBb 20.1 RoNEOCP691
     P10Rxi3 KC2019 09 21.45003 03 33 28.06 -12 29 14.8    ~9LBb 20.5 RoNEOCP691
     P10Rxi3 KC2019 09 21.45934 03 33 28.38 -12 29 17.6    ~9LBb 20.5 RoNEOCP691
     P10Rxi3 KC2019 09 22.37391 03 34 00.30 -12 33 53.3    ~9MAM 20.6 RoNEOCP291
     P10Rxi3 KC2019 09 22.38067 03 34 00.50 -12 33 55.1    ~9MAM 20.7 RoNEOCP291
     P10Rxi3 KC2019 09 22.38740 03 34 00.70 -12 33 57.1    ~9MAM 20.7 RoNEOCP291

Station data:
(291) LPL/Spacewatch II  (N31.961669 W111.599905)  US/Arizona.  Observers J.
   V. Scotti, R. S. McMillan. 1.8-m f/2.7 reflector + CCD.
(691) Steward Observatory, Kitt Peak - Spacewatch  (N31.962174 W111.600327)
   US/Arizona.  Observer J. V. Scotti. 0.9-m f/3 reflector + CCD.
(695) Kitt Peak  (N31.958398 W111.594670)  US/Arizona.
(F51) Pan-STARRS 1, Haleakala  (N20.707235 W156.255910)  US/Hawaii.
   Observers N. Primak, A. Schultz, S. Watters, J. Thiel, T. Goggia. Measurer
   PS1 Science Consortium. 1.8-m Ritchey-Chrétien + CCD.

Orbital elements:  P10Rxi3
   Perihelion 2019 Oct 20.869172 +/- 3.18 TT = 20:51:36 (JD 2458777.369172)
Epoch 2019 Sep 22.0 TT = JDT 2458748.5   Earth MOID: 0.8294   AutoNEOCP
M 353.10399815 +/- 0.8              (J2000 ecliptic)
n   0.23887078 +/- 0.00649          Peri.  300.29019 +/- 1.9
a   2.57253142 +/- 0.0466           Node    93.80354 +/- 0.53
e   0.3173176 +/- 0.00942           Incl.   17.45307 +/- 0.026
P   4.13                   H 18.7   G  0.15   U  9.4  
q 1.75622190 +/- 0.00806    Q 3.38884094 +/- 0.0911
From 13 observations 2019 Sept. 11-22; mean residual 0".20
Residuals in arcseconds: 
190911 F51  .02-  .06+    190912 695  .41+  .16+    190922 291  .15+  .30-    
190911 F51  .03-  .12+    190912 695  .13-  .20-    190922 291  .04+  .04-    
190911 F51  .06-  .06+    190921 691  .46+  .18+    190922 291  .05-  .01+    
190911 F51  .07-  .06+    190921 691  .45-  .10+    
190912 695  .08-  .29-    190921 691  .19-  .11+    

Ephemerides (geocentric):
Date (UTC) HH   RA              Dec         delta   r     elong  mag " sig PA
---- -- -- --  -------------   -----------  ------ ------ -----  --- ---- ---
2019 09 22 12  03 34 04.244   -12 34 24.89  0.9931 1.7684 124.6 21.2 .119 179
2019 09 22 13  03 34 05.627   -12 34 37.39  0.9929 1.7684 124.7 21.2 .131   4
2019 09 22 14  03 34 07.006   -12 34 49.89  0.9926 1.7683 124.7 21.2 .144   7
2019 09 22 15  03 34 08.381   -12 35 02.38  0.9923 1.7683 124.7 21.2 .157  10
2019 09 22 16  03 34 09.751   -12 35 14.87  0.9921 1.7682 124.7 21.2 .171  12
2019 09 22 17  03 34 11.118   -12 35 27.35  0.9918 1.7682 124.8 21.2 .185  14
2019 09 22 18  03 34 12.481   -12 35 39.84  0.9916 1.7682 124.8 21.2 .200  16
2019 09 22 19  03 34 13.839   -12 35 52.31  0.9913 1.7681 124.8 21.2 .215  18
2019 09 22 20  03 34 15.193   -12 36 04.78  0.9910 1.7681 124.8 21.2 .230  19
2019 09 22 21  03 34 16.544   -12 36 17.25  0.9908 1.7681 124.9 21.2 .245  21
2019 09 22 22  03 34 17.890   -12 36 29.72  0.9905 1.7680 124.9 21.2 .261  22
2019 09 22 23  03 34 19.232   -12 36 42.18  0.9902 1.7680 124.9 21.2 .277  23
2019 09 23 00  03 34 20.570   -12 36 54.63  .98997 1.7680 124.9 21.2 .293  24
2019 09 23 01  03 34 21.904   -12 37 07.08  .98971 1.7679 125.0 21.2 .309  25
2019 09 23 02  03 34 23.234   -12 37 19.53  .98944 1.7679 125.0 21.2 .326  25
2019 09 23 03  03 34 24.560   -12 37 31.98  .98918 1.7679 125.0 21.2 .342  26
2019 09 23 04  03 34 25.882   -12 37 44.41  .98892 1.7678 125.0 21.2 .359  27
2019 09 23 05  03 34 27.200   -12 37 56.85  .98865 1.7678 125.1 21.2 .376  27
2019 09 23 06  03 34 28.513   -12 38 09.28  .98839 1.7678 125.1 21.2 .394  28
2019 09 23 07  03 34 29.823   -12 38 21.70  .98813 1.7677 125.1 21.2 .411  29
2019 09 23 08  03 34 31.128   -12 38 34.12  .98787 1.7677 125.2 21.2 .429  29
2019 09 23 09  03 34 32.429   -12 38 46.54  .98761 1.7677 125.2 21.2 .446  30
2019 09 23 10  03 34 33.726   -12 38 58.95  .98734 1.7676 125.2 21.2 .464  30
2019 09 23 11  03 34 35.019   -12 39 11.36  .98708 1.7676 125.2 21.2 .482  30
2019 09 23 12  03 34 36.308   -12 39 23.76  .98682 1.7676 125.3 21.2 .501  31
2019 09 23 13  03 34 37.593   -12 39 36.16  .98656 1.7675 125.3 21.2 .519  31
2019 09 23 14  03 34 38.874   -12 39 48.55  .98630 1.7675 125.3 21.2 .538  32
2019 09 23 15  03 34 40.150   -12 40 00.94  .98604 1.7675 125.3 21.2 .556  32
2019 09 23 16  03 34 41.423   -12 40 13.32  .98578 1.7674 125.4 21.2 .575  32
2019 09 23 17  03 34 42.691   -12 40 25.70  .98551 1.7674 125.4 21.2 .595  33
2019 09 23 18  03 34 43.955   -12 40 38.08  .98525 1.7673 125.4 21.2 .614  33
2019 09 23 19  03 34 45.215   -12 40 50.44  .98499 1.7673 125.4 21.2 .633  33
2019 09 23 20  03 34 46.471   -12 41 02.81  .98473 1.7673 125.5 21.2 .653  34
2019 09 23 21  03 34 47.723   -12 41 15.17  .98447 1.7672 125.5 21.2 .673  34
2019 09 23 22  03 34 48.970   -12 41 27.52  .98421 1.7672 125.5 21.1 .693  34
2019 09 23 23  03 34 50.214   -12 41 39.87  .98395 1.7672 125.5 21.1 .713  34
2019 09 24 00  03 34 51.453   -12 41 52.21  .98369 1.7671 125.6 21.1 .733  35
2019 09 24 01  03 34 52.688   -12 42 04.55  .98343 1.7671 125.6 21.1 .754  35
2019 09 24 02  03 34 53.920   -12 42 16.88  .98318 1.7671 125.6 21.1 .775  35
2019 09 24 03  03 34 55.146   -12 42 29.21  .98292 1.7670 125.6 21.1 .795  35
2019 09 24 04  03 34 56.369   -12 42 41.53  .98266 1.7670 125.7 21.1 .816  36
2019 09 24 05  03 34 57.588   -12 42 53.84  .98240 1.7670 125.7 21.1 .838  36
2019 09 24 06  03 34 58.802   -12 43 06.16  .98214 1.7669 125.7 21.1 .859  36
2019 09 24 07  03 35 00.013   -12 43 18.46  .98188 1.7669 125.8 21.1 .880  36
2019 09 24 08  03 35 01.219   -12 43 30.76  .98162 1.7669 125.8 21.1 .902  37
2019 09 24 09  03 35 02.421   -12 43 43.05  .98136 1.7668 125.8 21.1 .924  37
2019 09 24 10  03 35 03.619   -12 43 55.34  .98111 1.7668 125.8 21.1 .946  37
2019 09 24 11  03 35 04.812   -12 44 07.63  .98085 1.7668 125.9 21.1 .968  37